This is the latest recevied weather packets stored in our database for station/object KJ5BMY-13. If no packets are shown the sender has not sent any weather packets the latest 10 day(s).
| Time | Temp. | Humidity | Pressure | Rain* | Wind** | Luminosity | Snow |
|---|---|---|---|---|---|---|---|
| 1778193908 | 22.78° C | 50% | 1017 hPa | 0 mm | - | - | - |
| 1778193605 | 23.33° C | 49% | 1017.1 hPa | 0 mm | - | - | - |
| 1778193301 | 23.33° C | 48% | 1017.3 hPa | 0 mm | - | - | - |
| 1778192998 | 23.33° C | 47% | 1017.1 hPa | 0 mm | - | - | - |
| 1778192695 | 23.33° C | 47% | 1017.3 hPa | 0 mm | - | - | - |
| 1778192391 | 23.33° C | 48% | 1017.1 hPa | 0 mm | - | - | - |
| 1778192088 | 23.33° C | 47% | 1017.2 hPa | 0 mm | - | - | - |
| 1778191785 | 23.33° C | 46% | 1017.3 hPa | 0 mm | - | - | - |
| 1778191482 | 23.89° C | 45% | 1017.5 hPa | 0 mm | - | - | - |
| 1778191179 | 23.89° C | 48% | 1017.2 hPa | 0 mm | - | - | - |
| 1778190875 | 23.89° C | 46% | 1017.3 hPa | 0 mm | - | - | - |
| 1778190573 | 23.89° C | 47% | 1017.6 hPa | 0 mm | - | - | - |
| 1778190271 | 23.89° C | 47% | 1017.5 hPa | 0 mm | - | - | - |
| 1778189966 | 23.89° C | 49% | 1017.5 hPa | 0 mm | - | - | - |
| 1778189663 | 23.33° C | 48% | 1017.8 hPa | 0 mm | - | - | - |
| 1778189359 | 24.44° C | 47% | 1017.6 hPa | 0 mm | - | - | - |
| 1778189055 | 23.89° C | 47% | 1017.5 hPa | 0 mm | - | - | - |
| 1778188752 | 23.89° C | 48% | 1017.8 hPa | 0 mm | - | - | - |
| 1778188449 | 23.89° C | 48% | 1017.7 hPa | 0 mm | - | - | - |
| 1778188145 | 23.89° C | 45% | 1017.9 hPa | 0 mm | - | - | - |
| 1778187843 | 24.44° C | 44% | 1017.6 hPa | 0 mm | - | - | - |
| 1778187539 | 24.44° C | 45% | 1017.7 hPa | 0 mm | - | - | - |
| 1778187236 | 24.44° C | 46% | 1017.5 hPa | 0 mm | - | - | - |
| 1778186932 | 25° C | 44% | 1017.9 hPa | 0 mm | - | - | - |
| 1778186629 | 25° C | 44% | 1017.6 hPa | 0 mm | - | - | - |
* Rain latest hour (hover to see other rain measurements)
** Current wind speed in m/s (hover to see current wind gust speed)